Вернуться в каталог

ATLAS 41E DEB

АктивенLEO
NORAD 15614·DEBRIS·🇺🇸 United States

Запущен Mar 13, 1985 с Vandenberg Space Force Base

Loading…

Ближайшие Пролёты (ближайшие 24 часа)

TLE

СвежийSource: Space-Track

Эпоха: Sep 14, 2026, 03:48 UTC

1 15614U 85021D   26257.15843834  .00001024  00000-0  16331-3 0  9995
2 15614 108.2210 338.2140 0010123 124.1643 236.0479 14.78851471209831

Отслеживайте ATLAS 41E DEB в реальном времени с AllMySat

Download on the App Store